This demonstration page uses our WeatherBlox Daily Observations layout. Learn more.

Left ArrowRight Arrow

36.17497, -115.13722

Hourly Observations for September 29, 2017

Temp ( °F °C ) Dew Point ( °F °C ) Humidity (%) Winds ( mph kmh ) Pressure ( in mb ) Visibility ( mi km ) Precip ( " mm )
12:53 am 00:53 Clear 68 20 36 2.2 31 31 NNW 5 7 29.98 1015 10 16 0.00 0.00
1:53 am 01:53 Clear 68 20 35 1.7 30 30 WNW 3 6 29.98 1015 10 16 0.00 0.00
2:53 am 02:53 Clear 66 18.9 38 3.3 36 36 W 3 6 29.98 1015 10 16 0.00 0.00
3:53 am 03:53 Clear 66 18.9 38 3.3 36 36 NW 3 6 29.97 1015 10 16 0.00 0.00
4:53 am 04:53 Clear 65 18.3 40 4.4 40 40 Calm 29.98 1015 10 16 0.00 0.00
5:53 am 05:53 Clear 65 18.3 40 4.4 40 40 NW 6 9 30.00 1016 10 16 0.00 0.00
6:53 am 06:53 Sunny 65 18.3 39 3.9 39 39 NW 8 13 30.01 1016 10 16 0.00 0.00
7:53 am 07:53 Sunny 69 20.6 37 2.8 31 31 NNW 3 6 30.01 1016 10 16 0.00 0.00
8:53 am 08:53 Hazy 75 23.9 34 1.1 22 22 NNW 6 9 30.02 1017 3 5 0.00 0.00
8:59 am 08:59 Hazy 75 23.9 34 1.1 22 22 NNW 6 9 29.94 1014 2 3 0.00 0.00
9:07 am 09:07 Hazy 77 25 33 0.6 20 20 N 6 9 29.91 1013 3 5 0.00 0.00
9:53 am 09:53 Sunny 78 25.6 34 1.1 20 20 ESE 3 6 30.02 1017 10 16 0.00 0.00
10:53 am 10:53 Sunny 80 26.7 35 1.7 20 20 SSE 5 7 30.01 1016 10 16 0.00 0.00
11:53 am 11:53 Sunny 82 27.8 37 2.8 20 20 VRB 5 7 29.99 1016 10 16 0.00 0.00
12:53 pm 12:53 Sunny 84 28.9 37 2.8 19 19 VRB 5 7 29.96 1015 10 16 0.00 0.00
1:53 pm 13:53 Sunny 86 30 35 1.7 16 16 SE 5 7 29.93 1014 10 16 0.00 0.00
2:53 pm 14:53 Sunny 87 30.6 32 0 14 14 Calm 29.90 1013 10 16 0.00 0.00
3:53 pm 15:53 Sunny 87 30.6 30 -1.1 13 13 VRB 3 6 29.88 1012 10 16 0.00 0.00
4:53 pm 16:53 Sunny 87 30.6 31 -0.6 13 13 S 5 7 29.86 1011 10 16 0.00 0.00
5:53 pm 17:53 Sunny 86 30 32 0 14 14 SW 6 9 29.86 1011 10 16 0.00 0.00
6:53 pm 18:53 Clear 84 28.9 33 0.6 16 16 S 3 6 29.86 1011 10 16 0.00 0.00
7:53 pm 19:53 Clear 83 28.3 33 0.6 17 17 Calm 29.87 1012 10 16 0.00 0.00
8:53 pm 20:53 Clear 78 25.6 38 3.3 24 24 WNW 6 9 29.88 1012 10 16 0.00 0.00
9:53 pm 21:53 Clear 76 24.4 38 3.3 25 25 NNW 5 7 29.88 1012 10 16 0.00 0.00
10:53 pm 22:53 Clear 74 23.3 38 3.3 27 27 NNW 5 7 29.88 1012 10 16 0.00 0.00
11:53 pm 23:53 Clear 74 23.3 38 3.3 27 27 W 3 6 29.87 1012 10 16 0.00 0.00

Powered by AerisWeather